Location: Newark
(54.2500°N, 9.1833°E)
Time: 05:43:06
(UTC+00:00)

Vanguard 2 Rocket - Pass Details

Date: 11 December 2019
Orbit: 554 x 3326 km, 32.9° (Epoch: 20 January)

Event Time Altitude Azimuth Distance (km) Brightness Sun altitude
Rises 17:02:57 0° 222° (SW) 6,609 12.3 -16.6°
Reaches altitude 10° 17:09:36 10° 208° (SSW) 5,078 11.3 -17.5°
Maximum altitude 17:17:43 18° 172° (S) 3,649 10.0 -18.7°
Drops below altitude 10° 17:23:46 10° 133° (SE) 3,622 9.6 -19.5°
Enters shadow 17:24:36 - 129° (SE) 3,716 9.7 -19.7°
